DT_LEITURA;HR_LEITURA;MED-PressaoAtm[hPa];VAL-TempExt[oC];VAL-UmidExt[%UR];VAL-TempInt[oC];VAL-UmidInt[%UR];Dir-Vento[grau];Vel-Vento[m/s];Precipitação[mm/h]
22/04/2026;00:04:00;1016,5;15,9;;23,1;69;;;0,0
22/04/2026;00:09:00;1016,5;16,0;;23,1;69;;;0,0
22/04/2026;00:14:00;1016,5;16,0;;23,1;69;;;0,0
22/04/2026;00:19:00;1016,5;16,1;;23,1;69;;;0,0
22/04/2026;00:24:00;1016,4;16,1;;23,1;69;;;0,0
22/04/2026;00:29:00;1016,3;16,1;;23,1;69;;;0,0
22/04/2026;00:34:00;1016,2;16,1;;23,1;69;;;0,0
22/04/2026;00:39:00;1016,2;16,1;;23,2;69;;;0,0
22/04/2026;00:44:00;1016,2;16,0;;23,2;69;;;0,0
22/04/2026;00:49:00;1016,1;15,9;;23,2;69;;;0,0
22/04/2026;00:54:00;1016,1;15,8;;23,1;69;;;0,0
22/04/2026;00:59:00;1016,1;15,6;;23,1;69;;;0,0
22/04/2026;01:04:00;1016,2;15,5;;23,0;69;;;0,0
22/04/2026;01:09:00;1016,3;15,4;;22,9;69;;;0,0
22/04/2026;01:14:00;1016,3;15,3;;22,9;69;;;0,0
22/04/2026;01:19:00;1016,3;15,3;;22,9;70;;;0,0
22/04/2026;01:24:00;1016,2;15,3;;22,8;70;;;0,0
22/04/2026;01:29:00;1016,1;15,3;;22,8;70;;;0,0
22/04/2026;01:34:00;1016,1;15,3;;22,8;70;;;0,0
22/04/2026;01:39:00;1016,1;15,3;;22,8;70;;;0,0
22/04/2026;01:44:00;1016,0;15,2;;22,7;70;;;0,0
22/04/2026;01:49:00;1015,9;15,1;;22,7;70;;;0,0
22/04/2026;01:54:00;1015,8;15,1;;22,6;70;;;0,0
22/04/2026;01:59:00;1015,7;15,0;;22,6;70;;;0,0
22/04/2026;02:04:00;1015,7;15,0;;22,5;70;;;0,0
22/04/2026;02:09:00;1015,7;15,0;;22,4;70;;;0,0
22/04/2026;02:14:00;1015,7;14,9;;22,4;70;;;0,0
22/04/2026;02:19:00;1015,7;14,8;;22,3;70;;;0,0
22/04/2026;02:24:00;1015,7;14,6;;22,2;70;;;0,0
22/04/2026;02:29:00;1015,7;14,6;10;22,2;70;;;0,0
22/04/2026;02:34:00;1015,6;14,6;0;22,1;70;;;0,0
22/04/2026;02:39:00;1015,6;14,6;11;22,1;70;;;0,0
22/04/2026;02:44:00;1015,5;14,7;30;22,1;70;;;0,0
22/04/2026;02:49:00;1015,5;14,8;;22,1;70;;;0,0
22/04/2026;02:54:00;1015,5;14,8;;22,2;70;;;0,0
22/04/2026;02:59:00;1015,4;14,8;;22,2;70;;;0,0
22/04/2026;03:04:00;1015,3;14,8;;22,1;70;;;0,0
22/04/2026;03:09:00;1015,3;14,8;;22,1;70;;;0,0
22/04/2026;03:14:00;1015,2;14,8;;22,1;70;;;0,0
22/04/2026;03:19:00;1015,1;14,8;;22,1;70;;;0,0
22/04/2026;03:24:00;1015,1;14,8;;22,0;70;;;0,0
22/04/2026;03:29:00;1015,1;14,7;;22,0;70;;;0,0
22/04/2026;03:34:00;1015,0;14,7;;21,9;70;;;0,0
22/04/2026;03:39:00;1014,9;14,7;;21,9;70;;;0,0
22/04/2026;03:44:00;1014,8;14,7;;21,9;70;;;0,0
22/04/2026;03:49:00;1014,8;14,7;;21,9;70;;;0,0
22/04/2026;03:54:00;1014,8;14,6;;21,9;70;;;0,0
22/04/2026;03:59:00;1014,9;14,5;;21,8;70;;;0,0
22/04/2026;04:04:00;1014,9;14,4;;21,8;70;;;0,0
22/04/2026;04:09:00;1014,9;14,3;;21,7;70;;;0,0
22/04/2026;04:14:00;1014,9;14,2;;21,7;70;;;0,0
22/04/2026;04:19:00;1014,9;14,2;;21,6;70;;;0,0
22/04/2026;04:24:00;1014,9;14,1;;21,5;70;;;0,0
22/04/2026;04:29:00;1014,9;14,0;;21,5;70;;;0,0
22/04/2026;04:34:00;1014,8;14,0;;21,4;70;;;0,0
22/04/2026;04:39:00;1014,7;13,9;;21,4;70;;;0,0
22/04/2026;04:44:00;1014,7;13,9;;21,3;70;;;0,0
22/04/2026;04:49:00;1014,7;13,8;;21,3;70;;;0,0
22/04/2026;04:54:00;1014,7;13,7;;21,2;70;;;0,0
22/04/2026;04:59:00;1014,7;13,7;;21,2;71;;;0,0
22/04/2026;05:04:00;1014,8;13,7;;21,2;71;;;0,0
22/04/2026;05:09:00;1014,8;13,6;;21,1;71;;;0,0
22/04/2026;05:14:00;1014,8;13,6;;21,0;71;;;0,0
22/04/2026;05:19:00;1014,9;13,5;;21,0;71;;;0,0
22/04/2026;05:24:00;1014,9;13,5;;21,0;71;;;0,0
22/04/2026;05:29:00;1015,0;13,5;;20,9;71;;;0,0
22/04/2026;05:34:00;1015,0;13,5;;20,9;71;;;0,0
22/04/2026;05:39:00;1015,0;13,4;12;20,9;71;;;0,0
22/04/2026;05:44:00;1015,1;13,4;0;20,9;71;;;0,0
22/04/2026;05:49:00;1015,1;13,4;0;20,9;71;;;0,0
22/04/2026;05:54:00;1015,2;13,4;0;20,9;71;;;0,0
22/04/2026;05:59:00;1015,2;13,3;0;20,8;71;;;0,0
22/04/2026;06:04:00;1015,3;13,2;0;20,8;71;;;0,0
22/04/2026;06:09:00;1015,3;13,2;0;20,7;71;;;0,0
22/04/2026;06:14:00;1015,3;13,1;0;20,7;71;;;0,0
22/04/2026;06:19:00;1015,3;13,1;0;20,7;71;;;0,0
22/04/2026;06:24:00;1015,4;13,0;0;20,7;71;;;0,0
22/04/2026;06:29:00;1015,4;13,0;0;20,7;71;;;0,0
22/04/2026;06:34:00;1015,4;12,9;0;20,7;71;;;0,0
22/04/2026;06:39:00;1015,5;12,9;0;20,7;71;;;0,0
22/04/2026;06:44:00;1015,6;12,8;0;20,6;71;;;0,0
22/04/2026;06:49:00;1015,6;12,8;0;20,6;71;;;0,0
22/04/2026;06:54:00;1015,7;12,7;0;20,6;71;;;0,0
22/04/2026;06:59:00;1015,7;12,7;0;20,6;71;;;0,0
22/04/2026;07:04:00;1015,7;12,7;0;20,6;71;;;0,0
22/04/2026;07:09:00;1015,8;12,7;0;20,6;71;;;0,0
22/04/2026;07:14:00;1015,8;12,7;0;20,6;71;;;0,0
22/04/2026;07:19:00;1015,8;12,7;0;20,6;71;;;0,0
22/04/2026;07:24:00;1015,7;12,7;0;20,6;71;;;0,0
22/04/2026;07:29:00;1015,8;12,7;0;20,7;71;;;0,0
22/04/2026;07:34:00;1015,9;12,7;0;20,7;71;;;0,0
22/04/2026;07:39:00;1015,9;12,8;0;20,7;71;;;0,0
22/04/2026;07:44:00;1015,9;12,9;0;20,7;71;;;0,0
22/04/2026;07:49:00;1015,9;13,1;0;20,8;71;;;0,0
22/04/2026;07:54:00;1016,0;13,3;0;20,8;71;;;0,0
22/04/2026;07:59:00;1016,0;13,5;0;20,9;71;;;0,0
22/04/2026;08:04:00;1016,0;14,1;;20,9;71;;;0,0
22/04/2026;08:09:00;1016,0;14,6;;21,0;71;;;0,0
22/04/2026;08:14:00;1016,0;15,2;;21,1;71;;;0,0
22/04/2026;08:19:00;1016,1;15,8;;21,2;72;;;0,0
22/04/2026;08:24:00;1016,1;16,5;;21,3;72;;;0,0
22/04/2026;08:29:00;1016,1;16,9;;21,5;72;;;0,0
22/04/2026;08:34:00;1016,1;17,2;;21,6;72;;;0,0
22/04/2026;08:39:00;1016,2;17,5;;21,7;72;;;0,0
22/04/2026;08:44:00;1016,3;17,9;98;21,8;72;;;0,0
22/04/2026;08:49:00;1016,3;18,2;96;22,0;72;;;0,0
22/04/2026;08:54:00;1016,4;18,4;94;22,1;72;;;0,0
22/04/2026;08:59:00;1016,4;18,6;91;22,3;72;;;0,0
22/04/2026;09:04:00;1016,4;18,8;93;22,4;72;;;0,0
22/04/2026;09:09:00;1016,4;19,3;89;22,6;73;;;0,0
22/04/2026;09:14:00;1016,4;19,5;85;22,7;73;;;0,0
22/04/2026;09:19:00;1016,4;19,6;84;22,9;73;;;0,0
22/04/2026;09:24:00;1016,5;19,6;83;23,1;73;;;0,0
22/04/2026;09:29:00;1016,5;19,7;83;23,3;72;;;0,0
22/04/2026;09:34:00;1016,5;19,9;83;23,5;72;;;0,0
22/04/2026;09:39:00;1016,5;20,1;82;23,7;72;;;0,0
22/04/2026;09:44:00;1016,5;20,6;79;23,9;72;;;0,0
22/04/2026;09:49:00;1016,5;21,2;77;24,1;72;;;0,0
22/04/2026;09:54:00;1016,4;21,7;74;24,3;72;;;0,0
22/04/2026;09:59:00;1016,4;22,1;72;24,5;72;;;0,0
22/04/2026;10:04:00;1016,4;22,4;71;24,8;72;;;0,0
22/04/2026;10:09:00;1016,4;22,7;69;25,0;72;;;0,0
22/04/2026;10:14:00;1016,4;22,9;68;25,1;71;;;0,0
22/04/2026;10:19:00;1016,3;23,0;70;25,3;71;;;0,0
22/04/2026;10:24:00;1016,3;22,9;71;25,5;71;;;0,0
22/04/2026;10:29:00;1016,3;22,9;71;25,7;71;;;0,0
22/04/2026;10:34:00;1016,3;22,9;70;25,8;71;;;0,0
22/04/2026;10:39:00;1016,4;23,1;69;26,0;71;;;0,0
22/04/2026;10:44:00;1016,4;23,4;68;26,1;71;;;0,0
22/04/2026;10:49:00;1016,3;23,6;68;26,3;71;;;0,0
22/04/2026;10:54:00;1016,3;23,6;68;26,5;71;;;0,0
22/04/2026;10:59:00;1016,3;23,5;69;26,6;71;;;0,0
22/04/2026;11:04:00;1016,3;23,5;70;26,8;71;;;0,0
22/04/2026;11:09:00;1016,2;23,6;71;26,9;71;;;0,0
22/04/2026;11:14:00;1016,1;23,7;71;27,1;71;;;0,0
22/04/2026;11:19:00;1016,0;23,6;71;27,2;71;;;0,0
22/04/2026;11:24:00;1015,9;23,6;72;27,4;71;;;0,0
22/04/2026;11:29:00;1015,8;23,8;71;27,5;71;;;0,0
22/04/2026;11:34:00;1015,7;23,9;70;27,7;71;;;0,0
22/04/2026;11:39:00;1015,7;23,9;70;27,9;71;;;0,0
22/04/2026;11:44:00;1015,6;23,7;71;28,0;70;;;0,0
22/04/2026;11:49:00;1015,5;23,8;71;28,1;70;;;0,0
22/04/2026;11:54:00;1015,4;23,8;70;28,2;70;;;0,0
22/04/2026;11:59:00;1015,3;23,8;70;28,4;70;;;0,0
22/04/2026;12:04:00;1015,3;23,8;71;28,5;70;;;0,0
22/04/2026;12:09:00;1015,2;23,7;71;28,6;70;;;0,0
22/04/2026;12:14:00;1015,2;23,6;71;28,7;70;;;0,0
22/04/2026;12:19:00;1015,1;23,7;72;28,8;70;;;0,0
22/04/2026;12:24:00;1015,0;23,8;72;28,9;70;;;0,0
22/04/2026;12:29:00;1014,9;23,6;72;29,0;70;;;0,0
22/04/2026;12:34:00;1014,8;23,6;72;29,1;70;;;0,0
22/04/2026;12:39:00;1014,8;23,6;73;29,2;70;;;0,0
22/04/2026;12:44:00;1014,7;23,6;73;29,3;70;;;0,0
22/04/2026;12:49:00;1014,7;23,5;73;29,4;70;;;0,0
22/04/2026;12:54:00;1014,7;23,5;73;29,4;70;;;0,0
22/04/2026;12:59:00;1014,6;23,4;73;29,5;70;;;0,0
22/04/2026;13:04:00;1014,6;23,5;73;29,6;70;;;0,0
22/04/2026;13:09:00;1014,5;23,5;73;29,7;70;;;0,0
22/04/2026;13:14:00;1014,4;23,5;73;29,8;70;;;0,0
22/04/2026;13:19:00;1014,4;23,6;73;29,9;70;;;0,0
22/04/2026;13:24:00;1014,3;23,7;72;30,0;70;;;0,0
22/04/2026;13:29:00;1014,3;23,7;73;30,1;70;;;0,0
22/04/2026;13:34:00;1014,3;23,4;74;30,1;69;;;0,0
22/04/2026;13:39:00;1014,2;23,3;74;30,2;69;;;0,0
22/04/2026;13:44:00;1014,2;23,4;74;30,2;69;;;0,0
22/04/2026;13:49:00;1014,1;23,5;73;30,2;70;;;0,0
22/04/2026;13:54:00;1014,0;23,5;73;30,3;70;;;0,0
22/04/2026;13:59:00;1014,0;23,4;73;30,4;70;;;0,0
22/04/2026;14:04:00;1014,1;23,5;72;30,4;70;;;0,0
22/04/2026;14:09:00;1014,1;23,5;72;30,5;70;;;0,0
22/04/2026;14:14:00;1014,1;23,5;73;30,5;70;;;0,0
22/04/2026;14:19:00;1014,0;23,4;73;30,5;69;;;0,0
22/04/2026;14:24:00;1014,0;23,3;74;30,5;69;;;0,0
22/04/2026;14:29:00;1014,0;23,3;74;30,6;70;;;0,0
22/04/2026;14:34:00;1014,0;23,1;74;30,5;69;;;0,0
22/04/2026;14:39:00;1014,0;23,0;75;30,5;69;;;0,0
22/04/2026;14:44:00;1014,0;23,0;75;30,4;70;;;0,0
22/04/2026;14:49:00;1014,0;22,9;76;30,4;70;;;0,0
22/04/2026;14:54:00;1013,9;22,9;76;30,4;70;;;0,0
22/04/2026;14:59:00;1013,9;22,9;76;30,4;70;;;0,0
22/04/2026;15:04:00;1013,9;22,9;76;30,5;70;;;0,0
22/04/2026;15:09:00;1013,9;22,8;76;30,5;70;;;0,0
22/04/2026;15:14:00;1014,0;22,7;77;30,5;69;;;0,0
22/04/2026;15:19:00;1014,0;22,7;77;30,5;70;;;0,0
22/04/2026;15:24:00;1014,0;22,8;75;30,6;70;;;0,0
22/04/2026;15:29:00;1014,0;22,8;75;30,6;69;;;0,0
22/04/2026;15:34:00;1014,0;22,7;76;30,7;69;;;0,0
22/04/2026;15:39:00;1014,0;22,9;75;30,7;69;;;0,0
22/04/2026;15:44:00;1014,0;22,9;75;30,7;69;;;0,0
22/04/2026;15:49:00;1014,0;23,0;75;30,7;69;;;0,0
22/04/2026;15:54:00;1014,0;22,9;76;30,7;69;;;0,0
22/04/2026;15:59:00;1014,0;22,9;75;30,7;69;;;0,0
22/04/2026;16:04:00;1014,0;22,7;77;30,7;69;;;0,0
22/04/2026;16:09:00;1014,1;22,6;77;30,6;69;;;0,0
22/04/2026;16:14:00;1014,1;22,4;77;30,5;69;;;0,0
22/04/2026;16:19:00;1014,2;22,2;79;30,3;69;;;0,0
22/04/2026;16:24:00;1014,2;22,0;80;30,0;69;;;0,0
22/04/2026;16:29:00;1014,2;21,9;80;29,8;69;;;0,0
22/04/2026;16:34:00;1014,2;21,8;80;29,7;70;;;0,0
22/04/2026;16:39:00;1014,3;21,8;81;29,5;70;;;0,0
22/04/2026;16:44:00;1014,3;21,9;80;29,4;70;;;0,0
22/04/2026;16:49:00;1014,4;21,8;79;29,4;70;;;0,0
22/04/2026;16:54:00;1014,4;21,7;81;29,2;70;;;0,0
22/04/2026;16:59:00;1014,4;21,6;82;29,1;70;;;0,0
22/04/2026;17:04:00;1014,4;21,5;82;28,9;70;;;0,0
22/04/2026;17:09:00;1014,5;21,4;83;28,7;70;;;0,0
22/04/2026;17:14:00;1014,5;21,3;84;28,5;70;;;0,0
22/04/2026;17:19:00;1014,4;21,3;84;28,4;70;;;0,0
22/04/2026;17:24:00;1014,4;21,1;85;28,2;70;;;0,0
22/04/2026;17:29:00;1014,5;20,9;86;28,0;70;;;0,0
22/04/2026;17:34:00;1014,4;20,8;87;27,9;70;;;0,0
22/04/2026;17:39:00;1014,4;20,6;88;27,6;70;;;0,0
22/04/2026;17:44:00;1014,5;20,5;90;27,4;71;;;0,0
22/04/2026;17:49:00;1014,6;20,3;91;27,2;71;;;0,0
22/04/2026;17:54:00;1014,8;20,1;93;27,0;71;;;0,0
22/04/2026;17:59:00;1014,8;20,0;94;26,8;71;;;0,0
22/04/2026;18:04:00;1014,7;19,8;95;26,7;71;;;0,0
22/04/2026;18:09:00;1014,8;19,7;97;26,5;71;;;0,0
22/04/2026;18:14:00;1014,9;19,6;98;26,3;71;;;0,0
22/04/2026;18:19:00;1015,0;19,5;99;26,2;71;;;0,0
22/04/2026;18:24:00;1015,0;19,4;;26,1;71;;;0,0
22/04/2026;18:29:00;1015,1;19,3;;26,0;71;;;0,0
22/04/2026;18:34:00;1015,1;19,2;;25,9;71;;;0,0
22/04/2026;18:39:00;1015,1;19,1;;25,8;71;;;0,0
22/04/2026;18:44:00;1015,2;19,0;;25,7;71;;;0,0
22/04/2026;18:49:00;1015,3;18,9;;25,6;71;;;0,0
22/04/2026;18:54:00;1015,3;18,8;;25,5;71;;;0,0
22/04/2026;18:59:00;1015,4;18,7;;25,4;71;;;0,0
22/04/2026;19:04:00;1015,5;18,6;;25,3;71;;;0,0
22/04/2026;19:09:00;1015,5;18,6;;25,2;71;;;0,0
22/04/2026;19:14:00;1015,5;18,5;;25,2;71;;;0,0
22/04/2026;19:19:00;1015,5;18,4;;25,1;71;;;0,0
22/04/2026;19:24:00;1015,5;18,3;;25,1;71;;;0,0
22/04/2026;19:29:00;1015,5;18,2;;25,0;71;;;0,0
22/04/2026;19:34:00;1015,6;18,1;;24,9;71;;;0,0
22/04/2026;19:39:00;1015,7;18,0;;24,9;71;;;0,0
22/04/2026;19:44:00;1015,8;17,9;;24,8;71;;;0,0
22/04/2026;19:49:00;1015,8;17,8;;24,8;71;;;0,0
22/04/2026;19:54:00;1015,9;17,8;;24,7;71;;;0,0
22/04/2026;19:59:00;1015,9;17,7;;24,6;71;;;0,0
22/04/2026;20:04:00;1016,0;17,6;;24,6;71;;;0,0
22/04/2026;20:09:00;1016,1;17,5;;24,6;71;;;0,0
22/04/2026;20:14:00;1016,1;17,5;;24,5;71;;;0,0
22/04/2026;20:19:00;1016,1;17,4;;24,5;71;;;0,0
22/04/2026;20:24:00;1016,2;17,3;;24,4;71;;;0,0
22/04/2026;20:29:00;1016,2;17,2;;24,4;71;;;0,0
22/04/2026;20:34:00;1016,2;17,2;;24,4;71;;;0,0
22/04/2026;20:39:00;1016,3;17,1;;24,4;71;;;0,0
22/04/2026;20:44:00;1016,4;17,0;;24,3;70;;;0,0
22/04/2026;20:49:00;1016,4;16,9;;24,3;70;;;0,0
22/04/2026;20:54:00;1016,5;16,8;;24,3;70;;;0,0
22/04/2026;20:59:00;1016,5;16,7;;24,2;70;;;0,0
22/04/2026;21:04:00;1016,5;16,6;;24,2;70;;;0,0
22/04/2026;21:09:00;1016,6;16,5;;24,1;70;;;0,0
22/04/2026;21:14:00;1016,6;16,4;;24,0;70;;;0,0
22/04/2026;21:19:00;1016,6;16,3;;24,0;70;;;0,0
22/04/2026;21:24:00;1016,6;16,2;;24,0;70;;;0,0
22/04/2026;21:29:00;1016,6;16,1;;23,9;70;;;0,0
22/04/2026;21:34:00;1016,6;16,1;;23,9;70;;;0,0
22/04/2026;21:39:00;1016,7;16,0;;23,8;70;;;0,0
22/04/2026;21:44:00;1016,8;15,9;22;23,8;70;;;0,0
22/04/2026;21:49:00;1016,8;15,8;4;23,8;70;;;0,0
22/04/2026;21:54:00;1016,8;15,7;0;23,7;70;;;0,0
22/04/2026;21:59:00;1016,8;15,6;0;23,7;70;;;0,0
22/04/2026;22:04:00;1016,9;15,5;0;23,7;70;;;0,0
22/04/2026;22:09:00;1016,9;15,4;0;23,6;70;;;0,0
22/04/2026;22:14:00;1016,9;15,2;0;23,6;70;;;0,0
22/04/2026;22:19:00;1016,9;15,1;0;23,5;70;;;0,0
22/04/2026;22:24:00;1016,9;14,9;0;23,5;70;;;0,0
22/04/2026;22:29:00;1016,9;14,8;0;23,5;70;;;0,0
22/04/2026;22:34:00;1016,8;14,6;0;23,4;70;;;0,0
22/04/2026;22:39:00;1016,9;14,5;0;23,4;70;;;0,0
22/04/2026;22:44:00;1016,9;14,4;0;23,3;70;;;0,0
22/04/2026;22:49:00;1016,8;14,4;0;23,3;70;;;0,0
22/04/2026;22:54:00;1016,8;14,3;0;23,2;70;;;0,0
22/04/2026;22:59:00;1016,8;14,2;0;23,2;70;;;0,0
22/04/2026;23:04:00;1016,8;14,2;0;23,1;70;;;0,0
22/04/2026;23:09:00;1016,7;14,1;0;23,1;70;;;0,0
22/04/2026;23:14:00;1016,7;14,0;0;23,0;70;;;0,0
22/04/2026;23:19:00;1016,7;14,0;0;22,9;70;;;0,0
22/04/2026;23:24:00;1016,6;13,9;0;22,9;70;;;0,0
22/04/2026;23:29:00;1016,6;13,8;0;22,9;71;;;0,0
22/04/2026;23:34:00;1016,7;13,8;0;22,8;71;;;0,0
22/04/2026;23:39:00;1016,7;13,7;0;22,8;71;;;0,0
22/04/2026;23:44:00;1016,6;13,6;0;22,7;71;;;0,0
22/04/2026;23:49:00;1016,6;13,5;0;22,7;71;;;0,0
22/04/2026;23:54:00;1016,6;13,5;0;22,7;71;;;0,0
22/04/2026;23:59:00;1016,6;13,4;0;22,6;71;;;0,0
